#timestamp,LO_Frequency,Hit,StdDev 
1592118015.4,286046995.2,N
1592118035.2,286046994.2,N
1592118055.1,286046994.6,N
1592118075.8,286046992.6,N
1592118095.7,286046989.3,Y
1592118115.5,286046991.2,P
1592118135.4,286046988.7,P
1592118155.2,286046988.7,P
1592118175.0,286046986.3,Y
1592118175.9,286046985.5,P
1592118195.8,286046991.9,N
1592118215.6,286046996.0,N
1592118235.5,286046994.0,N
1592118255.3,286046994.5,N
1592118275.1,286046992.9,N
1592118295.9,286046990.1,Y
1592118315.7,286047001.0,P
1592118335.5,286047000.3,N
1592118355.4,286046998.1,N
1592118375.2,286046998.4,N
1592118395.1,286047000.8,N
1592118396.0,286047000.8,N
1592118415.8,286046998.6,N
1592118435.6,286047000.6,N
1592118455.5,286046998.5,N
1592118475.3,286047000.2,N
1592118495.1,286047004.6,N
1592118515.9,286047010.4,Y
1592118535.7,286047012.2,P
1592118555.6,286047010.7,N
1592118575.4,286047010.3,N
1592118595.2,286047006.8,N
1592118615.1,286047005.7,N
1592118616.0,286047005.7,N
1592118635.8,286047001.9,N
1592118655.6,286046999.8,N
1592118675.5,286047000.5,N
1592118695.3,286047000.5,N
1592118715.2,286046999.7,N
1592118735.9,286047002.7,N
1592118755.7,286047001.9,N
1592118775.6,286047000.4,N
1592118795.4,286046998.1,N
1592118815.2,286046997.5,N
1592118835.1,286046993.2,N
1592118836.0,286046993.2,N
1592118855.8,286046987.4,N
1592118875.7,286046987.1,N
1592118895.5,286046985.9,N
1592118915.3,286046986.2,N
1592118935.2,286046984.2,N
1592118955.9,286046981.0,N
1592118975.7,286046982.0,N
1592118995.6,286046981.0,N
1592119015.4,286046980.7,N
1592119035.2,286046978.9,N
1592119055.1,286046979.2,N
1592119056.0,286046979.2,N
1592119075.8,286046979.6,N
1592119095.7,286046981.7,N
1592119115.5,286046980.1,N
1592119135.3,286046979.5,N
1592119155.2,286046975.7,N
1592119175.0,286046974.7,N
1592119175.9,286046974.7,N
1592119195.8,286046975.2,N
1592119215.6,286046972.6,N
1592119235.4,286046974.4,N
1592119255.3,286046978.7,N
1592119275.1,286046975.2,N
1592119295.9,286046973.0,Y
1592119315.7,286046991.5,P
1592119335.5,286046989.0,N
1592119355.4,286046989.4,P
1592119375.2,286046989.8,Y
1592119395.0,286047002.7,P
1592119396.0,286047002.7,N
1592119415.8,286046998.1,N
1592119435.6,286046996.5,N
1592119455.5,286046998.6,N
1592119475.3,286046998.8,N
1592119495.1,286046996.8,N
1592119515.9,286046995.2,N
1592119535.7,286046995.5,N
1592119555.6,286046997.7,N
1592119575.4,286046995.3,N
1592119595.2,286046996.3,N
1592119615.1,286046996.7,N
1592119616.0,286046996.7,N
1592119635.8,286046996.6,N
1592119655.6,286046998.5,N
1592119675.5,286046998.2,N
1592119695.3,286047000.2,N
1592119715.2,286047002.3,N
1592119735.9,286047000.4,N
1592119755.7,286046999.5,N
1592119775.6,286046998.9,N
1592119795.4,286046998.8,N
1592119815.2,286047001.0,N
1592119835.1,286047000.3,N
1592119836.0,286047000.3,N
1592119855.8,286047000.4,N
1592119875.7,286046999.8,N
1592119895.5,286046996.9,N
1592119915.3,286046997.1,N
1592119935.2,286046997.5,N
1592119955.0,286046994.5,N
1592119955.9,286046994.5,N
1592119975.7,286046992.5,Y
1592119995.6,286046994.7,P
1592120015.4,286046992.0,P
1592120035.3,286046990.5,P
1592120055.1,286046991.1,Y
1592120075.8,286046995.5,P
1592120095.7,286046994.9,P
1592120115.5,286046996.7,P
1592120135.4,286046996.8,Y
1592120155.2,286047004.4,P
1592120175.0,286047004.3,N
1592120175.9,286047004.3,N
1592120195.8,286047005.0,N
1592120215.6,286047006.7,N
1592120235.4,286047006.7,N
1592120255.3,286047006.1,N
1592120275.1,286047008.9,N
1592120295.9,286047006.6,N
1592120315.7,286047008.8,N
1592120335.5,286047004.6,N
1592120355.4,286047003.6,N
1592120375.2,286047000.6,N
1592120395.0,286047000.5,N
1592120395.9,286047000.5,N
1592120415.8,286046998.3,N
1592120435.6,286046999.5,N
1592120455.5,286046998.3,N
1592120475.3,286046999.0,N
1592120495.1,286046997.6,N
1592120515.9,286046992.3,N
1592120535.7,286046990.1,N
1592120555.5,286046994.6,N
1592120575.4,286046992.4,N
1592120595.2,286046992.3,N
1592120615.1,286046992.2,N
1592120616.0,286046992.2,N
1592120635.8,286046997.4,N
1592120655.6,286047000.5,N
1592120675.5,286047004.6,N
1592120695.3,286046998.3,N
1592120715.1,286047000.4,N
1592120735.9,286046999.3,N
1592120755.7,286046998.8,N
1592120775.6,286046999.5,N
1592120795.4,286046997.2,N
1592120815.2,286046997.1,N
1592120835.1,286047000.6,N
1592120836.0,286047000.6,N
1592120855.8,286047001.9,N
1592120875.6,286047002.9,N
1592120895.5,286047003.1,N
1592120915.3,286047004.3,N
1592120935.2,286047002.3,N
1592120955.9,286046999.9,N
1592120975.7,286046999.3,N
1592120995.6,286046997.5,N
1592121015.4,286046995.2,N
1592121035.2,286046994.1,N
1592121055.1,286046992.9,N
1592121056.0,286046992.9,N
1592121075.8,286046991.1,N
1592121095.7,286046985.3,Y
1592121115.5,286046983.7,P
1592121135.3,286046987.8,N
1592121155.2,286046986.7,N
1592121175.0,286046983.7,Y
1592121175.9,286046983.7,P
1592121195.8,286046997.0,N
1592121215.6,286046997.5,N
1592121235.4,286047001.2,N
1592121255.3,286046999.9,N
1592121275.1,286047000.0,N
1592121295.8,286046998.6,N
1592121315.7,286046996.6,N
1592121335.5,286046995.1,N
1592121355.4,286046997.5,N
1592121375.2,286046999.0,N
1592121395.0,286046998.6,N
1592121395.9,286046998.6,N
1592121415.8,286046998.9,N
1592121435.6,286046998.1,N
1592121455.4,286046998.6,N
1592121475.3,286047000.6,N
1592121495.1,286046998.7,N
1592121515.9,286046998.6,N
1592121535.7,286046999.2,N
1592121555.5,286047002.9,N
1592121575.4,286047005.5,N
1592121595.2,286047007.1,N
